Total_Precipitation_Accumulation
0.49 0.47 0.56 0.79 0.92 0.83 0.86 0.96 1.24 1.11 0.99 1.03 1.05 1.09 1.08 1.05 1.04 1.05 1.10 1.09 1.06 1.11 1.18 1.32 1.43 1.50 1.57 1.61 1.66 1.79 1.87 1.89 1.89 1.77 1.63 1.57 1.60 1.43 1.43 1.51 1.51 1.52 1.58 1.63
0.31 0.29 0.40 0.65 0.79 0.81 0.79 0.78 0.81 0.73 0.73 0.70 0.74 0.79 0.83 0.87 0.80 0.81 0.88 0.89 0.87 0.88 0.93 1.02 0.98 1.05 1.17 1.32 1.50 1.66 1.72 1.67 1.67 1.64 1.61 1.54 1.48 1.41 1.36 1.37 1.42 1.44 1.45 1.59
0.42 0.31 0.43 0.71 0.74 0.78 0.62 0.49 0.49 0.59 0.61 0.55 0.57 0.64 0.71 0.78 0.79 0.76 0.77 0.78 0.80 0.81 0.79 0.84 0.85 0.91 0.99 1.13 1.34 1.48 1.54 1.47 1.36 1.36 1.39 1.39 1.37 1.40 1.39 1.36 1.36 1.38 1.33 1.43
0.60 0.55 0.83 0.93 0.74 0.64 0.57 0.44 0.37 0.42 0.48 0.48 0.49 0.57 0.63 0.68 0.75 0.71 0.68 0.69 0.74 0.76 0.75 0.78 0.86 0.94 1.02 1.09 1.14 1.27 1.40 1.42 1.34 1.26 1.25 1.27 1.28 1.33 1.40 1.34 1.30 1.32 1.28 1.22
0.79 0.76 0.76 0.73 0.55 0.53 0.63 0.65 0.41 0.38 0.41 0.40 0.38 0.48 0.55 0.60 0.63 0.57 0.52 0.52 0.55 0.57 0.59 0.65 0.72 0.80 0.84 0.88 0.91 1.00 1.10 1.17 1.19 1.13 1.17 1.26 1.24 1.35 1.42 1.31 1.27 1.23 1.23 1.18
0.86 0.90 0.91 0.69 0.39 0.35 0.52 0.86 0.52 0.40 0.35 0.32 0.35 0.50 0.50 0.48 0.48 0.41 0.39 0.36 0.38 0.44 0.47 0.50 0.58 0.71 0.76 0.75 0.71 0.78 0.88 0.90 0.98 1.04 1.10 1.19 1.30 1.39 1.38 1.33 1.29 1.19 1.18 1.13
0.93 1.08 1.07 0.73 0.42 0.41 0.81 0.98 0.57 0.43 0.37 0.34 0.40 0.41 0.40 0.40 0.41 0.34 0.35 0.35 0.35 0.39 0.45 0.50 0.55 0.63 0.67 0.72 0.69 0.71 0.80 0.85 0.89 0.92 1.01 1.18 1.31 1.30 1.24 1.22 1.23 1.20 1.18 1.10
1.13 1.39 1.42 0.88 0.68 0.77 0.80 0.58 0.47 0.37 0.39 0.40 0.40 0.37 0.36 0.35 0.33 0.28 0.29 0.32 0.34 0.36 0.43 0.53 0.53 0.53 0.56 0.59 0.61 0.66 0.69 0.78 0.78 0.79 0.85 0.97 1.07 1.17 1.17 1.16 1.17 1.10 1.06 1.04
1.24 1.26 1.04 0.78 0.72 0.66 0.58 0.50 0.41 0.38 0.38 0.40 0.39 0.34 0.31 0.28 0.28 0.26 0.26 0.29 0.35 0.41 0.49 0.57 0.57 0.52 0.51 0.53 0.58 0.63 0.68 0.75 0.73 0.71 0.74 0.83 0.95 1.07 1.17 1.20 1.15 1.07 0.95 0.89
0.72 0.71 0.64 0.52 0.45 0.47 0.45 0.43 0.36 0.33 0.35 0.40 0.41 0.37 0.32 0.27 0.26 0.27 0.26 0.28 0.33 0.43 0.49 0.59 0.59 0.53 0.53 0.54 0.55 0.58 0.64 0.72 0.76 0.76 0.78 0.79 0.86 0.95 1.10 1.17 1.09 0.96 0.92 0.89
0.56 0.49 0.47 0.41 0.37 0.38 0.39 0.34 0.30 0.28 0.31 0.35 0.39 0.38 0.33 0.31 0.31 0.30 0.29 0.29 0.33 0.40 0.47 0.56 0.66 0.60 0.56 0.55 0.55 0.55 0.61 0.66 0.67 0.72 0.78 0.79 0.77 0.79 0.90 0.96 1.04 1.07 1.01 0.98
0.56 0.41 0.44 0.44 0.37 0.34 0.35 0.31 0.29 0.30 0.35 0.34 0.31 0.32 0.31 0.31 0.35 0.35 0.33 0.33 0.37 0.39 0.44 0.48 0.60 0.67 0.63 0.64 0.64 0.63 0.61 0.65 0.68 0.70 0.75 0.75 0.74 0.79 0.82 0.86 0.99 1.02 1.03 1.02
0.37 0.29 0.31 0.33 0.29 0.27 0.27 0.24 0.24 0.27 0.32 0.34 0.30 0.29 0.28 0.29 0.34 0.37 0.37 0.39 0.45 0.47 0.48 0.48 0.53 0.60 0.65 0.70 0.71 0.74 0.70 0.71 0.73 0.74 0.72 0.71 0.76 0.83 0.84 0.79 0.78 0.79 0.82 0.83
0.23 0.23 0.26 0.27 0.25 0.22 0.22 0.20 0.23 0.25 0.27 0.29 0.29 0.27 0.27 0.29 0.35 0.36 0.37 0.41 0.45 0.47 0.48 0.51 0.52 0.58 0.68 0.75 0.79 0.83 0.88 0.94 0.88 0.80 0.76 0.73 0.75 0.82 0.86 0.90 0.84 0.71 0.70 0.76
0.20 0.22 0.25 0.23 0.22 0.22 0.21 0.20 0.22 0.22 0.25 0.26 0.25 0.27 0.31 0.34 0.36 0.40 0.39 0.37 0.39 0.39 0.40 0.47 0.49 0.52 0.62 0.65 0.70 0.76 0.84 0.93 0.94 0.90 0.85 0.83 0.86 0.93 0.92 0.85 0.82 0.80 0.73 0.74
0.24 0.22 0.21 0.18 0.19 0.19 0.17 0.18 0.21 0.21 0.23 0.24 0.25 0.31 0.38 0.41 0.41 0.43 0.41 0.35 0.34 0.34 0.36 0.45 0.51 0.51 0.56 0.59 0.59 0.67 0.70 0.84 0.94 0.97 0.95 0.93 0.96 0.99 0.97 0.89 0.80 0.80 0.77 0.74
0.25 0.29 0.28 0.24 0.22 0.21 0.20 0.20 0.20 0.21 0.22 0.21 0.26 0.34 0.40 0.42 0.41 0.43 0.44 0.41 0.39 0.38 0.38 0.44 0.51 0.53 0.57 0.59 0.59 0.61 0.65 0.72 0.83 0.86 0.86 0.87 0.92 0.97 0.99 0.96 0.89 0.85 0.83 0.83
0.23 0.28 0.32 0.31 0.26 0.25 0.25 0.25 0.24 0.23 0.23 0.23 0.27 0.37 0.44 0.45 0.46 0.48 0.51 0.49 0.45 0.41 0.41 0.46 0.49 0.52 0.56 0.62 0.67 0.68 0.67 0.70 0.76 0.81 0.84 0.86 0.89 0.89 0.93 0.96 0.95 0.92 0.93 0.97
0.23 0.24 0.26 0.26 0.23 0.25 0.27 0.26 0.27 0.29 0.30 0.28 0.30 0.39 0.47 0.54 0.58 0.56 0.55 0.56 0.55 0.57 0.56 0.58 0.65 0.56 0.57 0.67 0.74 0.70 0.70 0.69 0.72 0.79 0.84 0.91 0.93 0.89 0.89 0.89 0.89 0.89 0.89 0.93
0.29 0.33 0.35 0.34 0.29 0.27 0.29 0.30 0.29 0.32 0.37 0.38 0.37 0.39 0.47 0.55 0.58 0.56 0.55 0.58 0.64 0.71 0.70 0.73 0.71 0.63 0.63 0.69 0.76 0.71 0.74 0.77 0.80 0.85 0.85 0.86 0.91 0.93 0.92 0.91 0.92 0.91 0.92 0.96
0.37 0.44 0.43 0.40 0.33 0.28 0.28 0.29 0.30 0.33 0.37 0.37 0.38 0.42 0.51 0.60 0.60 0.59 0.58 0.60 0.63 0.68 0.71 0.79 0.76 0.74 0.72 0.81 0.86 0.80 0.81 0.83 0.87 0.91 0.92 0.93 0.95 0.97 0.96 0.95 0.96 0.98 1.01 1.01
0.39 0.41 0.38 0.37 0.35 0.31 0.30 0.30 0.29 0.30 0.32 0.34 0.37 0.42 0.51 0.62 0.67 0.65 0.61 0.65 0.69 0.79 0.77 0.77 0.76 0.85 0.92 0.92 0.80 0.81 0.85 0.90 0.95 0.96 0.97 0.99 1.03 1.04 1.01 1.02 1.02 1.01 1.02 1.04
0.38 0.39 0.43 0.45 0.42 0.39 0.36 0.35 0.35 0.35 0.35 0.38 0.40 0.44 0.50 0.56 0.67 0.75 0.67 0.61 0.63 0.74 0.72 0.75 0.83 0.91 0.96 0.85 0.80 0.82 0.83 0.84 0.89 0.94 0.99 1.03 1.04 1.06 1.10 1.10 1.08 1.04 1.06 1.10
0.33 0.35 0.42 0.46 0.45 0.44 0.44 0.44 0.44 0.43 0.42 0.42 0.44 0.46 0.50 0.55 0.60 0.69 0.67 0.67 0.73 0.76 0.68 0.77 0.88 0.94 0.91 0.75 0.78 0.86 0.90 0.90 0.93 0.99 1.05 1.06 1.04 1.07 1.11 1.15 1.15 1.13 1.14 1.18
0.30 0.31 0.36 0.41 0.45 0.44 0.42 0.40 0.41 0.44 0.45 0.45 0.47 0.50 0.52 0.57 0.63 0.70 0.68 0.64 0.73 0.79 0.75 0.86 0.95 0.94 0.86 0.84 0.86 0.91 0.99 1.05 1.11 1.15 1.13 1.15 1.16 1.18 1.18 1.18 1.21 1.24 1.22 1.22
0.28 0.28 0.31 0.36 0.39 0.39 0.38 0.37 0.39 0.42 0.46 0.46 0.47 0.52 0.56 0.59 0.63 0.72 0.77 0.72 0.72 0.80 0.82 0.87 0.92 0.94 0.91 1.00 1.04 1.03 1.04 1.10 1.13 1.11 1.13 1.18 1.20 1.20 1.19 1.18 1.18 1.20 1.21 1.19
0.30 0.29 0.31 0.34 0.36 0.35 0.36 0.39 0.42 0.45 0.48 0.50 0.51 0.52 0.54 0.58 0.64 0.72 0.80 0.81 0.76 0.79 0.86 0.93 0.97 1.00 1.02 1.05 1.08 1.11 1.14 1.15 1.17 1.17 1.17 1.23 1.27 1.28 1.26 1.24 1.25 1.25 1.27 1.28